2015-04-26 00:03:49 r, 18.23m,0000000005Hz,0000101566c,0000000.220s, 025.4C,00002195
2015-04-26 00:13:49 r, 18.25m,0000000005Hz,0000103559c,0000000.225s, 025.4C,00002195
2015-04-26 00:23:49 r, 18.25m,0000000004Hz,0000103646c,0000000.225s, 025.1C,00002195
2015-04-26 00:33:49 r, 18.25m,0000000004Hz,0000104412c,0000000.227s, 025.1C,00002195
2015-04-26 00:43:49 r, 18.27m,0000000004Hz,0000105550c,0000000.229s, 024.8C,00002195
2015-04-26 00:53:49 r, 18.28m,0000000004Hz,0000106790c,0000000.232s, 024.8C,00002195
2015-04-26 01:03:49 r, 18.29m,0000000005Hz,0000107910c,0000000.234s, 024.4C,00002195
2015-04-26 01:13:49 r, 18.29m,0000000005Hz,0000108483c,0000000.235s, 024.4C,00002195
2015-04-26 01:23:49 r, 18.30m,0000000004Hz,0000109304c,0000000.237s, 024.1C,00002195
2015-04-26 01:33:49 r, 18.30m,0000000004Hz,0000109272c,0000000.237s, 024.1C,00002195
2015-04-26 01:43:49 r, 18.30m,0000000004Hz,0000109496c,0000000.238s, 023.8C,00002195
2015-04-26 01:53:49 r, 18.32m,0000000004Hz,0000110986c,0000000.241s, 023.8C,00002195
2015-04-26 02:03:49 r, 18.32m,0000000004Hz,0000111354c,0000000.242s, 023.5C,00002195
2015-04-26 02:13:49 r, 18.32m,0000000004Hz,0000110679c,0000000.240s, 023.5C,00002195
2015-04-26 02:23:49 r, 18.31m,0000000004Hz,0000109822c,0000000.238s, 023.5C,00002195
2015-04-26 02:33:49 r, 18.33m,0000000004Hz,0000112281c,0000000.244s, 023.5C,00002195
2015-04-26 02:43:49 r, 18.34m,0000000004Hz,0000112450c,0000000.244s, 023.2C,00002195
2015-04-26 02:53:49 r, 18.35m,0000000004Hz,0000113270c,0000000.246s, 023.2C,00002195
2015-04-26 03:03:49 r, 18.35m,0000000004Hz,0000113513c,0000000.246s, 023.2C,00002195
2015-04-26 03:13:49 r, 18.36m,0000000004Hz,0000114199c,0000000.248s, 022.8C,00002195
2015-04-26 03:23:49 r, 18.36m,0000000005Hz,0000114350c,0000000.248s, 022.8C,00002195
2015-04-26 03:33:49 r, 18.38m,0000000004Hz,0000116112c,0000000.252s, 022.8C,00002195
2015-04-26 03:43:49 r, 18.38m,0000000004Hz,0000116103c,0000000.252s, 022.5C,00002195
2015-04-26 03:53:49 r, 18.37m,0000000004Hz,0000114952c,0000000.249s, 022.5C,00002195
2015-04-26 04:03:49 r, 18.30m,0000000004Hz,0000108305c,0000000.235s, 022.5C,00002195
2015-04-26 04:13:49 r, 18.21m,0000000004Hz,0000099695c,0000000.216s, 022.2C,00002195
2015-04-26 04:23:49 r, 18.22m,0000000005Hz,0000100740c,0000000.219s, 022.2C,00002195
2015-04-26 04:33:49 r, 18.26m,0000000004Hz,0000103568c,0000000.225s, 022.2C,00002195
2015-04-26 04:43:49 r, 18.28m,0000000004Hz,0000106173c,0000000.230s, 022.2C,00002195
2015-04-26 04:53:49 r, 18.15m,0000000005Hz,0000094068c,0000000.204s, 022.2C,00002195
2015-04-26 05:03:49 r, 17.79m,0000000007Hz,0000067435c,0000000.146s, 021.9C,00002195
2015-04-26 05:13:49 r, 17.08m,0000000013Hz,0000035485c,0000000.077s, 021.9C,00002195
2015-04-26 05:23:49 r, 15.93m,0000000038Hz,0000012225c,0000000.027s, 021.5C,00002195
2015-04-26 05:33:49 r, 14.21m,0000000183Hz,0000000000c,0000000.000s, 021.5C,00002195
2015-04-26 05:43:49 r, 12.31m,0000001056Hz,0000000000c,0000000.000s, 021.2C,00002195
2015-04-26 05:53:49 r, 10.49m,0000005680Hz,0000000000c,0000000.000s, 020.9C,00002195
2015-04-26 06:03:49 r, 08.91m,0000024225Hz,0000000000c,0000000.000s, 020.9C,00002195
2015-04-26 06:13:49 r, 07.75m,0000070699Hz,0000000000c,0000000.000s, 020.9C,00002195
2015-04-26 06:23:49 r, 06.89m,0000156904Hz,0000000000c,0000000.000s, 020.6C,00002195
2015-04-26 06:33:49 r, 06.24m,0000286420Hz,0000000000c,0000000.000s, 020.9C,00002195
2015-04-26 06:43:49 r, 00.00m,0000429909Hz,0000000000c,0000000.000s, 020.9C,00002195
2015-04-26 06:53:49 r, 00.00m,0000563199Hz,0000000000c,0000000.000s, 020.9C,00002195
2015-04-26 07:03:49 r, 00.00m,0000563195Hz,0000000000c,0000000.000s, 020.9C,00002195
2015-04-26 07:13:49 r, 00.00m,0000563166Hz,0000000000c,0000000.000s, 021.2C,00002195
2015-04-26 07:23:49 r, 00.00m,0000563244Hz,0000000000c,0000000.000s, 021.5C,00002195
2015-04-26 07:33:49 r, 00.00m,0000563360Hz,0000000000c,0000000.000s, 021.9C,00002195
2015-04-26 07:43:49 r, 00.00m,0000563387Hz,0000000000c,0000000.000s, 022.2C,00002195
2015-04-26 07:53:49 r, 00.00m,0000563517Hz,0000000000c,0000000.000s, 022.8C,00002195
2015-04-26 08:03:49 r, 00.00m,0000563527Hz,0000000000c,0000000.000s, 023.8C,00002195
2015-04-26 08:13:49 r, 00.00m,0000563643Hz,0000000000c,0000000.000s, 024.8C,00002195
2015-04-26 08:23:49 r, 00.00m,0000563816Hz,0000000000c,0000000.000s, 025.7C,00002195
2015-04-26 08:33:49 r, 00.00m,0000563868Hz,0000000000c,0000000.000s, 026.4C,00002195
2015-04-26 08:43:49 r, 00.00m,0000564000Hz,0000000000c,0000000.000s, 027.3C,00002195
2015-04-26 08:53:49 r, 00.00m,0000564019Hz,0000000000c,0000000.000s, 028.0C,00002195
2015-04-26 09:03:49 r, 00.00m,0000564156Hz,0000000000c,0000000.000s, 029.3C,00002195
2015-04-26 09:13:49 r, 00.00m,0000564428Hz,0000000000c,0000000.000s, 030.6C,00002195
2015-04-26 09:23:49 r, 00.00m,0000564542Hz,0000000000c,0000000.000s, 032.5C,00002195
2015-04-26 09:33:49 r, 00.00m,0000564722Hz,0000000000c,0000000.000s, 033.5C,00002195
2015-04-26 09:43:49 r, 00.00m,0000564692Hz,0000000000c,0000000.000s, 034.1C,00002195
2015-04-26 09:53:49 r, 00.00m,0000564879Hz,0000000000c,0000000.000s, 035.4C,00002195
2015-04-26 10:03:49 r, 00.00m,0000565056Hz,0000000000c,0000000.000s, 037.0C,00002195
2015-04-26 10:13:49 r, 00.00m,0000565070Hz,0000000000c,0000000.000s, 037.3C,00002195
2015-04-26 10:23:49 r, 00.00m,0000565023Hz,0000000000c,0000000.000s, 037.7C,00002195
2015-04-26 10:33:49 r, 00.00m,0000565024Hz,0000000000c,0000000.000s, 037.3C,00002195
2015-04-26 10:43:49 r, 00.00m,0000565009Hz,0000000000c,0000000.000s, 037.3C,00002195
2015-04-26 10:53:49 r, 00.00m,0000564941Hz,0000000000c,0000000.000s, 037.0C,00002195
2015-04-26 11:03:49 r, 00.00m,0000564858Hz,0000000000c,0000000.000s, 036.4C,00002195
2015-04-26 11:13:49 r, 00.00m,0000565029Hz,0000000000c,0000000.000s, 037.3C,00002195
2015-04-26 11:23:49 r, 00.00m,0000565398Hz,0000000000c,0000000.000s, 040.9C,00002195
2015-04-26 11:33:49 r, 00.00m,0000565548Hz,0000000000c,0000000.000s, 043.5C,00002195
2015-04-26 11:43:49 r, 00.00m,0000565677Hz,0000000000c,0000000.000s, 044.4C,00002195
2015-04-26 11:53:49 r, 00.00m,0000565752Hz,0000000000c,0000000.000s, 045.7C,00002195
2015-04-26 12:03:49 r, 00.00m,0000565722Hz,0000000000c,0000000.000s, 046.0C,00002195
2015-04-26 12:13:49 r, 00.00m,0000565620Hz,0000000000c,0000000.000s, 045.7C,00002195
2015-04-26 12:23:49 r, 00.00m,0000565650Hz,0000000000c,0000000.000s, 046.7C,00002195
2015-04-26 12:33:49 r, 00.00m,0000565755Hz,0000000000c,0000000.000s, 046.7C,00002195
2015-04-26 12:43:49 r, 00.00m,0000565767Hz,0000000000c,0000000.000s, 047.3C,00002195
2015-04-26 12:53:49 r, 00.00m,0000565709Hz,0000000000c,0000000.000s, 047.0C,00002195
2015-04-26 13:03:49 r, 00.00m,0000565700Hz,0000000000c,0000000.000s, 046.4C,00002195
2015-04-26 13:13:49 r, 00.00m,0000565668Hz,0000000000c,0000000.000s, 046.4C,00002195
2015-04-26 13:23:49 r, 00.00m,0000565645Hz,0000000000c,0000000.000s, 046.4C,00002195
2015-04-26 13:33:49 r, 00.00m,0000565757Hz,0000000000c,0000000.000s, 047.3C,00002195
2015-04-26 13:43:49 r, 00.00m,0000565836Hz,0000000000c,0000000.000s, 048.3C,00002195
2015-04-26 13:53:49 r, 00.00m,0000565801Hz,0000000000c,0000000.000s, 048.6C,00002195
2015-04-26 14:03:49 r, 00.00m,0000565836Hz,0000000000c,0000000.000s, 049.3C,00002195
2015-04-26 14:13:49 r, 00.00m,0000565888Hz,0000000000c,0000000.000s, 049.6C,00002195
2015-04-26 14:23:49 r, 00.00m,0000565920Hz,0000000000c,0000000.000s, 049.6C,00002195
2015-04-26 14:33:49 r, 00.00m,0000565820Hz,0000000000c,0000000.000s, 049.9C,00002195
2015-04-26 14:43:49 r, 00.00m,0000565818Hz,0000000000c,0000000.000s, 049.6C,00002195
2015-04-26 14:53:49 r, 00.00m,0000565608Hz,0000000000c,0000000.000s, 048.3C,00002195
2015-04-26 15:03:49 r, 00.00m,0000565632Hz,0000000000c,0000000.000s, 047.7C,00002195
2015-04-26 15:13:49 r, 00.00m,0000565598Hz,0000000000c,0000000.000s, 048.0C,00002195
2015-04-26 15:23:49 r, 00.00m,0000565681Hz,0000000000c,0000000.000s, 048.6C,00002195
2015-04-26 15:33:49 r, 00.00m,0000565705Hz,0000000000c,0000000.000s, 049.3C,00002195
2015-04-26 15:43:49 r, 00.00m,0000565737Hz,0000000000c,0000000.000s, 049.6C,00002195
2015-04-26 15:53:49 r, 00.00m,0000565656Hz,0000000000c,0000000.000s, 048.3C,00002195
2015-04-26 16:03:49 r, 00.00m,0000565585Hz,0000000000c,0000000.000s, 047.7C,00002195
2015-04-26 16:13:49 r, 00.00m,0000565532Hz,0000000000c,0000000.000s, 048.0C,00002195
2015-04-26 16:23:49 r, 00.00m,0000565506Hz,0000000000c,0000000.000s, 047.3C,00002195
2015-04-26 16:33:49 r, 00.00m,0000565487Hz,0000000000c,0000000.000s, 047.0C,00002195
2015-04-26 16:43:49 r, 00.00m,0000565496Hz,0000000000c,0000000.000s, 046.7C,00002195
2015-04-26 16:53:49 r, 00.00m,0000565460Hz,0000000000c,0000000.000s, 047.0C,00002195
2015-04-26 17:03:50 r, 00.00m,0000565426Hz,0000000000c,0000000.000s, 047.0C,00002195
2015-04-26 17:13:50 r, 00.00m,0000565341Hz,0000000000c,0000000.000s, 046.7C,00002195
2015-04-26 17:23:50 r, 00.00m,0000565342Hz,0000000000c,0000000.000s, 046.0C,00002195
2015-04-26 17:33:50 r, 00.00m,0000565227Hz,0000000000c,0000000.000s, 045.7C,00002195
2015-04-26 17:43:50 r, 00.00m,0000565214Hz,0000000000c,0000000.000s, 045.1C,00002195
2015-04-26 17:53:50 r, 00.00m,0000565190Hz,0000000000c,0000000.000s, 044.4C,00002195
2015-04-26 18:03:50 r, 00.00m,0000565095Hz,0000000000c,0000000.000s, 044.1C,00002195
2015-04-26 18:13:50 r, 00.00m,0000565116Hz,0000000000c,0000000.000s, 043.5C,00002195
2015-04-26 18:23:50 r, 00.00m,0000565061Hz,0000000000c,0000000.000s, 043.1C,00002195
2015-04-26 18:33:50 r, 00.00m,0000564960Hz,0000000000c,0000000.000s, 042.5C,00002195
2015-04-26 18:43:50 r, 00.00m,0000564854Hz,0000000000c,0000000.000s, 041.2C,00002195
2015-04-26 18:53:50 r, 00.00m,0000564803Hz,0000000000c,0000000.000s, 040.6C,00002195
2015-04-26 19:03:50 r, 00.00m,0000564699Hz,0000000000c,0000000.000s, 039.6C,00002195
2015-04-26 19:13:50 r, 00.00m,0000564626Hz,0000000000c,0000000.000s, 038.6C,00002195
2015-04-26 19:23:50 r, 00.00m,0000564587Hz,0000000000c,0000000.000s, 038.0C,00002195
2015-04-26 19:33:50 r, 00.00m,0000564365Hz,0000000000c,0000000.000s, 037.0C,00002195
2015-04-26 19:43:50 r, 00.00m,0000564411Hz,0000000000c,0000000.000s, 035.4C,00002195
2015-04-26 19:53:50 r, 00.00m,0000564262Hz,0000000000c,0000000.000s, 034.4C,00002195
2015-04-26 20:03:50 r, 00.00m,0000562917Hz,0000000000c,0000000.000s, 033.8C,00002195
2015-04-26 20:13:50 r, 00.00m,0000403015Hz,0000000000c,0000000.000s, 033.1C,00002195
2015-04-26 20:23:50 r, 06.55m,0000214304Hz,0000000000c,0000000.000s, 032.5C,00002195
2015-04-26 20:33:50 r, 07.43m,0000094840Hz,0000000000c,0000000.000s, 032.5C,00002195
2015-04-26 20:43:50 r, 08.27m,0000043960Hz,0000000000c,0000000.000s, 031.9C,00002195
2015-04-26 20:53:50 r, 09.62m,0000012643Hz,0000000000c,0000000.000s, 031.5C,00002195
2015-04-26 21:03:50 r, 11.22m,0000002911Hz,0000000000c,0000000.000s, 031.2C,00002195
2015-04-26 21:13:50 r, 13.01m,0000000556Hz,0000000000c,0000000.000s, 031.2C,00002195
2015-04-26 21:23:50 r, 14.74m,0000000112Hz,0000004123c,0000000.009s, 030.9C,00002195
2015-04-26 21:33:50 r, 15.90m,0000000038Hz,0000011956c,0000000.026s, 031.2C,00002195
2015-04-26 21:43:50 r, 16.47m,0000000023Hz,0000020157c,0000000.044s, 031.2C,00002195
2015-04-26 21:53:50 r, 16.57m,0000000020Hz,0000022136c,0000000.048s, 031.2C,00002195
2015-04-26 22:03:50 r, 16.46m,0000000023Hz,0000020067c,0000000.044s, 031.2C,00002195
2015-04-26 22:13:50 r, 16.47m,0000000023Hz,0000020218c,0000000.044s, 031.5C,00002195
2015-04-26 22:23:50 r, 16.84m,0000000016Hz,0000028150c,0000000.061s, 031.5C,00002195
2015-04-26 22:33:50 r, 16.74m,0000000018Hz,0000025924c,0000000.056s, 031.2C,00002195
2015-04-26 22:43:50 r, 16.44m,0000000024Hz,0000019657c,0000000.043s, 031.2C,00002195
2015-04-26 22:53:50 r, 16.25m,0000000028Hz,0000016610c,0000000.036s, 031.2C,00002195
2015-04-26 23:03:50 r, 15.76m,0000000044Hz,0000010472c,0000000.023s, 031.5C,00002195
2015-04-26 23:13:50 r, 15.73m,0000000045Hz,0000010169c,0000000.022s, 031.5C,00002195
2015-04-26 23:23:50 r, 15.87m,0000000039Hz,0000011568c,0000000.025s, 031.5C,00002195
2015-04-26 23:33:50 r, 15.71m,0000000047Hz,0000009943c,0000000.022s, 031.5C,00002195
2015-04-26 23:43:50 r, 15.50m,0000000056Hz,0000008253c,0000000.018s, 031.2C,00002195
2015-04-26 23:53:50 r, 15.56m,0000000053Hz,0000008761c,0000000.019s, 031.2C,00002195
